Regional Weather Roundup
Issued by NWS Cleveland, OH

Home | Current Version | Previous Version | Graphics & Text | Print | Product List | Glossary On
Versions: 1 2 3 4 5 6 7 8 9 10 11 12 13 14 15 16 17 18 19 20 21 22 23 24 25 26 27 28 29 30 31 32 33 34 35 36 37 38 39 40 41 42 43 44 45 46 47 48 49 50
000
ASUS41 KCLE 280112
RWRCLE
OHIO REGIONAL WEATHER ROUNDUP
NATIONAL WEATHER SERVICE WILMINGTON, OH
900 PM EDT SAT MAY 27 2017

NOTE: "FAIR" INDICATES FEW OR NO CLOUDS BELOW 12,000 FEET WITH NO
SIGNIFICANT WEATHER AND/OR OBSTRUCTIONS TO VISIBILITY.

OHZ001>008-015>018-024>027-034-035-043-044-280200-
   NORTHWEST OHIO

CITY           SKY/WX    TMP DP  RH WIND       PRES   REMARKS
DEFIANCE       CLOUDY    68  56  65 E5        29.89R
FINDLAY        CLOUDY    69  53  56 NE9       29.87R
TOLEDO EXPRESS CLOUDY    67  52  58 E5        29.87F
TOLEDO EXEC    CLOUDY    67  55  65 E9        29.88S
LIMA           FAIR      68  60  75 NE8       29.87R
$$

OHZ009>014-019>023-028>033-038-089-280200-
   NORTHEAST OHIO

CITY           SKY/WX    TMP DP  RH WIND       PRES   REMARKS
CLE-HOPKINS    MOCLDY    69  51  52 NE7       29.91S
CLE-LAKEFRONT  FAIR      63  57  81 NE6       29.89R
CUY CO. ARPT   PTCLDY    66  52  59 E6        29.91R
LORAIN-ELYRIA  CLOUDY    64  49  57 E7        29.89F
ASHTABULA      FAIR      62  52  69 CALM      29.91F
AKRON-CANTON   FAIR      69  57  65 E5        29.89R
WOOSTER        CLOUDY    67  57  70 NE6       29.90R
MANSFIELD      CLOUDY    67  57  70 NE9       29.89S
YOUNGSTOWN     MOCLDY    64  51  62 N7        29.90S
$$

OHZ042-051>053-060>062-070>072-077>081-280200-
  SOUTHWEST OHIO

CITY           SKY/WX    TMP DP  RH WIND       PRES   REMARKS
CINC-COVINGTON CLOUDY    75  69  81 SW7       29.84R
CINC-LUNKEN    MOCLDY    75  71  87 S6        29.82S
HAMILTON       FAIR      75  70  84 N3        29.83R
DAYTON         CLOUDY    74  65  73 N6        29.85S
WRIGHT-PAT AFB MOCLDY    75  68  78 N6        29.82F
DAYTON GENERAL FAIR      77  64  64 N5        29.83S
WILMINGTON     FAIR      73  68  84 NE6       29.83F
$$

OHZ036-037-039>041-045>050-054>059-063>069-073>076-082>088-280200-
  CENTRAL AND SOUTHEAST OHIO

CITY           SKY/WX    TMP DP  RH WIND       PRES   REMARKS
COLUMBUS       FAIR      74  65  73 E6        29.84S
OSU AIRPORT    FAIR      72  65  78 N3        29.85R
BOLTON FIELD   FAIR      73  67  82 NE3       29.85R
RICKENBACK AFB MOCLDY    73  67  81 E5        29.84R
NEWARK         FAIR      74  64  71 E7        29.85S
MARION         FAIR      69  60  73 NE13      29.86F
LANCASTER      FAIR      75  66  73 E6        29.86R
ZANESVILLE     FAIR      73  65  75 CALM      29.87R
NEW PHILLY     CLOUDY    69  64  84 CALM      29.89R
$$




USA.gov is the U.S. government's official web portal to all federal, state and local government web resources and services.